NOAA 16 DEB, 41165

Orbit data source: Space-Track

NOAA 16 DEB, 41165 is space debris in SSO originally from a launch on Thu, 21 Sep 2000 UTC launched from the Air Force Western Test Range (AFWTR). Debris objects in space refer to the collection of defunct objects orbiting the Earth. Examples of debris include non-operational satellites, rocket bodies, and fragments generated from explosions, collisions, or faulty payload assembly.

Loading next visibility...
Identifier
41165, 2000-055CY
Orbit
SSO
Country
Flag of USUS
Related business
Manufacturer
Unknown
Mission
Spacecraft
Bus & Motor
Unknown
Mass
Unknown
Launch date (UTC)
2000-09-21 (25 years ago)
Launch vehicle
Unknown
Launch site
Air Force Western Test Range (AFWTR)
Object type
Payload
Rocket body
Debris
Shape & HBR
Unknown shape, 0.1 m
Radar Cross Section
Small (<0.1 m²)

Expand to show TLE details & history
Last TLE update: 22 hours ago

TLE from 22 hours ago
0 NOAA 16 DEB
1 41165U 00055CY  26073.28835424  .00005068  00000-0  20355-2 0  9997
2 41165  98.6136 102.1828 0019482 338.7348  21.3022 14.28490658530302
Epoch: 2026-03-14T06:55Z
TLE epoch observation values (Epoch: 2026-03-14T06:55:13.806Z)
Latitude
Longitude
-173.53641°
Altitude
786.687 km
Speed
7.467 km/s
True Right ascension
06h 48m 43s
True Declination
0° 00' 00"
Sunlit
Object was in daylight at epoch
Visualization orbit readout
Latitude
Unknown
Longitude
Unknown
Altitude
Unknown
Speed
Unknown
Apparent Right ascension
Unknown
Apparent Declination
Unknown
Sunlit
N/A
Visualization observer readout
Local Sidereal Time
09:14:46
Azimuth
Unknown
Elevation
Unknown
Doppler factor
Unknown
Orbital elements
Apogee altitude
807.896 km
Perigee altitude
779.95 km
Semi-major axis
7,172.06 km
Eccentricity
0.00195
Inclination
98.6136°
RAAN
102.1828°
Arg. of periapsis
338.7348°
True anomaly
21.38349°
Mean anomaly
21.3022°
Eccentric anomaly
21.34283°
Mean motion
3.57336 °/min
Orbital period
100.75 mins
BSTAR
0.0020355
Loading maneuver chart data...
Computing Atmospheric mass density...

Documentation

Showing up to 5 results
|